Marshfield, WI

7:45 AM CDT on October 22, 2017 (GMT -0500)
Marshfield Municipal

Weather History for KMFI - October, 2011

Change the Weather History Date:

Thursday, October 13, 2011

  Actual Average Record
Temperature  
Mean Temperature 56 °F -  
Max Temperature 60 °F 58 °F 81 °F (1975)
Min Temperature 48 °F 35 °F 15 °F (1917)
Degree Days  
Heating Degree Days 10    
Growing Degree Days 6 (Base 50)    
Moisture  
Dew Point 53 °F    
Average Humidity 88    
Maximum Humidity 96    
Minimum Humidity 77    
Precipitation  
Precipitation 0.00 in - - ()
Sea Level Pressure  
Sea Level Pressure 29.55 in    
Wind  
Wind Speed 9 mph (WNW)    
Max Wind Speed 20 mph    
Max Gust Speed 26 mph    
Visibility 7 miles    
Events Rain    
Averages and records for this station are not official NWS values.
T = Trace of Precipitation, MM = Missing Value Source: NWS Daily Summary

Daily Weather History Graph

Daily Weather History Graph

Search for Another Location

Airport or City:

Trip Planner

Search our weather history database for the weather conditions in past years. The results will help you decide how hot, cold, wet, or windy it might be!

Date:

Astronomy

Oct. 13, 2011 Rise Set
Actual Time 7:13 AM CDT 6:20 PM CDT
Civil Twilight 6:43 AM CDT 6:49 PM CDT
Nautical Twilight 6:10 AM CDT 7:23 PM CDT
Astronomical Twilight 5:36 AM CDT 7:56 PM CDT
Moon 6:48 PM CDT (10/13) 8:51 AM CDT (10/13)
Length of Visible Light 12h 05m
Length of Day
11h 06m
Full, 98% of the Moon is Illuminated
Oct 13
Full
Oct 19
Last Quarter
Oct 26
New
Nov 2
First Quarter
Nov 10
Full

Hourly Weather History & Observations

Time (CDT) Temp. Dew Point Humidity Pressure Visibility Wind Dir Wind Speed Gust Speed Precip Events Conditions
12:03 AM 57.2 °F 55.4 °F 94% 29.65 in 5.0 mi ENE 5.8 mph - N/A Rain Light Rain
12:24 AM 57.2 °F 55.4 °F 94% 29.64 in 5.0 mi ENE 6.9 mph - N/A   Overcast
12:54 AM 57.0 °F 55.9 °F 96% 29.63 in 5.0 mi ENE 6.9 mph - N/A Rain Light Rain
1:20 AM 57.2 °F 55.4 °F 94% 29.63 in 4.0 mi ENE 8.1 mph - N/A Rain Light Rain
1:54 AM 57.0 °F 55.9 °F 96% 29.61 in 3.0 mi ENE 8.1 mph - N/A Rain Rain
2:01 AM 57.2 °F 55.4 °F 94% 29.61 in 4.0 mi ENE 5.8 mph - N/A Rain Light Rain
2:54 AM 57.0 °F 55.9 °F 96% 29.58 in 3.0 mi East 6.9 mph - N/A Rain Light Rain
3:31 AM 57.2 °F 55.4 °F 94% 29.58 in 2.0 mi East 6.9 mph - N/A Rain Heavy Rain
3:54 AM 57.0 °F 55.0 °F 93% 29.57 in 3.0 mi ESE 8.1 mph - N/A Rain Rain
4:54 AM 57.0 °F 55.9 °F 96% 29.57 in 4.0 mi SE 8.1 mph - N/A Rain Light Rain
5:28 AM 57.2 °F 55.4 °F 94% 29.57 in 2.5 mi SSE 8.1 mph - N/A Rain Light Rain
5:45 AM 57.2 °F 55.4 °F 94% 29.56 in 3.0 mi SSE 9.2 mph - N/A Rain Light Rain
5:54 AM 57.0 °F 55.9 °F 96% 29.57 in 3.0 mi SE 9.2 mph - N/A Rain Light Rain
6:21 AM 57.2 °F 55.4 °F 94% 29.56 in 4.0 mi SSE 9.2 mph - N/A Rain Rain
6:54 AM 57.9 °F 55.9 °F 93% 29.56 in 5.0 mi SSE 10.4 mph - N/A Rain Rain
7:14 AM 57.2 °F 55.4 °F 94% 29.56 in 2.5 mi SSW 8.1 mph - N/A Rain Heavy Rain
7:18 AM 57.2 °F 55.4 °F 94% 29.56 in 1.8 mi SSW 6.9 mph - N/A Rain Heavy Rain
7:41 AM 57.2 °F 55.4 °F 94% 29.56 in 2.5 mi WSW 4.6 mph - N/A Rain Heavy Rain
7:48 AM 57.2 °F 55.4 °F 94% 29.56 in 2.5 mi West 4.6 mph - N/A Rain Heavy Rain
7:54 AM 57.0 °F 55.0 °F 93% 29.56 in 3.0 mi West 5.8 mph - N/A Rain Rain
7:59 AM 57.2 °F 55.4 °F 94% 29.56 in 3.0 mi West 5.8 mph - N/A Rain Heavy Rain
8:10 AM 57.2 °F 55.4 °F 94% 29.56 in 2.5 mi West 5.8 mph - N/A Rain Rain
8:20 AM 57.2 °F 55.4 °F 94% 29.56 in 3.0 mi West 4.6 mph - N/A Rain Rain
8:54 AM 55.9 °F 54.0 °F 93% 29.55 in 6.0 mi WNW 10.4 mph - N/A Rain Light Rain
9:09 AM 55.4 °F 53.6 °F 94% 29.54 in 6.0 mi NW 11.5 mph - N/A Rain Light Rain
9:54 AM 55.9 °F 53.1 °F 90% 29.55 in 10.0 mi NW 12.7 mph - N/A Rain Light Rain
10:37 AM 55.4 °F 53.6 °F 94% 29.54 in 10.0 mi NW 9.2 mph - N/A   Overcast
10:54 AM 57.0 °F 54.0 °F 89% 29.55 in 10.0 mi NW 10.4 mph - N/A   Overcast
11:40 AM 57.2 °F 53.6 °F 88% 29.54 in 10.0 mi NW 9.2 mph - N/A   Overcast
11:54 AM 57.0 °F 53.1 °F 87% 29.54 in 10.0 mi WNW 11.5 mph 17.3 mph N/A   Overcast
12:08 PM 57.2 °F 53.6 °F 88% 29.53 in 10.0 mi NW 10.4 mph - N/A   Overcast
12:41 PM 57.2 °F 53.6 °F 88% 29.52 in 10.0 mi WNW 12.7 mph 19.6 mph N/A   Overcast
12:54 PM 57.9 °F 53.1 °F 84% 29.52 in 10.0 mi WNW 11.5 mph - N/A   Overcast
1:12 PM 59.0 °F 53.6 °F 82% 29.51 in 10.0 mi WNW 12.7 mph 20.7 mph N/A   Overcast
1:29 PM 59.0 °F 53.6 °F 82% 29.51 in 10.0 mi WNW 15.0 mph - N/A   Overcast
1:54 PM 60.1 °F 54.0 °F 80% 29.50 in 10.0 mi NW 13.8 mph 21.9 mph N/A   Mostly Cloudy
2:26 PM 57.2 °F 51.8 °F 82% 29.49 in 9.0 mi WNW 15.0 mph 23.0 mph N/A Rain Light Rain
2:40 PM 57.2 °F 53.6 °F 88% 29.50 in 8.0 mi WNW 15.0 mph - N/A Rain Light Rain
2:54 PM 57.9 °F 52.0 °F 81% 29.50 in 10.0 mi WNW 15.0 mph 25.3 mph N/A   Overcast
3:03 PM 57.2 °F 51.8 °F 82% 29.50 in 10.0 mi WNW 16.1 mph 26.5 mph N/A   Overcast
3:54 PM 57.0 °F 51.1 °F 81% 29.50 in 10.0 mi NW 13.8 mph - N/A   Overcast
4:10 PM 57.2 °F 50.0 °F 77% 29.50 in 10.0 mi WNW 15.0 mph 25.3 mph N/A   Overcast
4:54 PM 57.0 °F 50.0 °F 77% 29.51 in 10.0 mi WNW 15.0 mph 23.0 mph N/A   Overcast
5:51 PM 55.4 °F 48.2 °F 77% 29.51 in 10.0 mi WNW 11.5 mph - N/A   Overcast
5:54 PM 55.9 °F 48.9 °F 77% 29.51 in 10.0 mi WNW 10.4 mph - N/A   Overcast
6:14 PM 55.4 °F 48.2 °F 77% 29.51 in 10.0 mi WNW 10.4 mph - N/A   Overcast
6:54 PM 55.0 °F 48.0 °F 77% 29.52 in 10.0 mi WNW 13.8 mph - N/A   Overcast
7:54 PM 54.0 °F 46.9 °F 77% 29.53 in 10.0 mi WNW 13.8 mph 23.0 mph N/A   Overcast
9:49 PM 53.6 °F 46.4 °F 77% 29.53 in 10.0 mi WNW 9.2 mph - N/A   Overcast
9:54 PM 53.1 °F 46.9 °F 80% 29.54 in 10.0 mi WNW 11.5 mph - N/A   Overcast
10:40 PM 51.8 °F 46.4 °F 82% 29.53 in 10.0 mi NW 19.6 mph 24.2 mph N/A   Overcast
10:54 PM 51.1 °F 44.1 °F 77% 29.54 in 10.0 mi NW 17.3 mph - N/A   Mostly Cloudy
11:54 PM 48.9 °F 43.0 °F 80% 29.53 in 10.0 mi NW 11.5 mph - N/A   Clear